AGUSAN UAAA-UTDD

Flight info

Callsign AGUSAN
Flight time 1h 17m
Altitude FL360
Route LAKEL L135 VADER B350 JD
Aircraft C750/M-L/C

Departure

Time 2026-04-29 17:39
Airport Almaty International Airport (UAAA)

Arrival

Time 2026-04-29 18:56
Airport Dushanbe International Airport (UTDD)
Time Latitude Longitude Altitude Speed Heading
2026-04-29 17:32 43.34396 77.01340 2244 ft 0 kts 246°
2026-04-29 17:37 43.34395 77.01335 2243 ft 1 kts 254°
2026-04-29 17:37 43.34408 77.01336 2244 ft 5 kts 26°
2026-04-29 17:37 43.34452 77.01389 2243 ft 12 kts 44°
2026-04-29 17:37 43.34492 77.01497 2243 ft 15 kts 126°
2026-04-29 17:38 43.34395 77.01582 2243 ft 19 kts 153°
2026-04-29 17:38 43.34264 77.01665 2244 ft 23 kts 154°
2026-04-29 17:38 43.34166 77.01813 2247 ft 24 kts 77°
2026-04-29 17:38 43.34265 77.02039 2246 ft 44 kts 56°
2026-04-29 17:39 43.34638 77.02785 2244 ft 141 kts 56°
2026-04-29 17:39 43.35336 77.04161 2341 ft 200 kts 56°
2026-04-29 17:39 43.36120 77.05844 3138 ft 224 kts 60°
2026-04-29 17:39 43.37061 77.07440 4437 ft 220 kts 48°
2026-04-29 17:40 43.37968 77.09056 5547 ft 222 kts 56°
2026-04-29 17:40 43.38867 77.10800 6440 ft 234 kts 50°
2026-04-29 17:40 43.40280 77.11953 7215 ft 253 kts 12°
2026-04-29 17:40 43.42044 77.11660 7949 ft 271 kts 335°
2026-04-29 17:41 43.43512 77.09996 8794 ft 281 kts 314°
2026-04-29 17:41 43.44906 77.08122 9729 ft 286 kts 316°
2026-04-29 17:41 43.46335 77.06237 10633 ft 292 kts 316°
2026-04-29 17:41 43.47824 77.04283 11216 ft 305 kts 316°
2026-04-29 17:42 43.49384 77.02231 11782 ft 320 kts 316°
2026-04-29 17:42 43.51009 77.00097 12458 ft 329 kts 316°
2026-04-29 17:42 43.52656 76.97932 13282 ft 331 kts 317°
2026-04-29 17:42 43.54322 76.95740 14111 ft 332 kts 317°
2026-04-29 17:43 43.56106 76.93762 14892 ft 333 kts 323°
2026-04-29 17:43 43.57598 76.91347 15594 ft 337 kts 303°
2026-04-29 17:43 43.58516 76.88396 16192 ft 343 kts 282°
2026-04-29 17:43 43.58375 76.85142 16855 ft 349 kts 255°
2026-04-29 17:44 43.57162 76.82264 17512 ft 357 kts 229°
2026-04-29 17:44 43.55113 76.80363 18089 ft 363 kts 202°
2026-04-29 17:44 43.52608 76.79854 18676 ft 368 kts 177°
2026-04-29 17:44 43.50064 76.80179 19297 ft 370 kts 181°
2026-04-29 17:45 43.47597 76.79323 19823 ft 371 kts 209°
2026-04-29 17:45 43.45430 76.77439 20397 ft 373 kts 211°
2026-04-29 17:45 43.42947 76.76379 20893 ft 379 kts 190°
2026-04-29 17:45 43.40312 76.76237 21445 ft 383 kts 180°
2026-04-29 17:46 43.37693 76.76845 21910 ft 389 kts 159°
2026-04-29 17:46 43.35377 76.78773 22416 ft 391 kts 145°
2026-04-29 17:46 43.33066 76.80731 22894 ft 394 kts 150°
2026-04-29 17:46 43.30720 76.82676 23338 ft 398 kts 150°
2026-04-29 17:47 43.28342 76.84621 23744 ft 403 kts 150°
2026-04-29 17:47 43.25926 76.86598 24337 ft 408 kts 150°
2026-04-29 17:47 43.23463 76.88494 25028 ft 409 kts 156°
2026-04-29 17:47 43.20744 76.89481 25594 ft 408 kts 180°
2026-04-29 17:48 43.17954 76.88968 26190 ft 404 kts 202°
2026-04-29 17:48 43.15579 76.87071 26758 ft 397 kts 226°
2026-04-29 17:48 43.13796 76.84250 27368 ft 396 kts 230°
2026-04-29 17:48 43.11579 76.81994 27911 ft 404 kts 216°
2026-04-29 17:49 43.09330 76.79725 28458 ft 403 kts 221°
2026-04-29 17:49 43.07069 76.77432 28974 ft 407 kts 220°
2026-04-29 17:49 43.04794 76.75105 29504 ft 409 kts 220°
2026-04-29 17:49 43.02500 76.72777 30011 ft 411 kts 221°
2026-04-29 17:50 43.00206 76.70442 30433 ft 415 kts 221°
2026-04-29 17:50 42.97892 76.68094 30870 ft 418 kts 221°
2026-04-29 17:50 42.95557 76.65726 31307 ft 421 kts 221°
2026-04-29 17:50 42.93210 76.63348 31704 ft 424 kts 221°
2026-04-29 17:51 42.90842 76.60952 32114 ft 427 kts 221°
2026-04-29 17:51 42.88462 76.58535 32479 ft 430 kts 221°
2026-04-29 17:51 42.86046 76.56091 32873 ft 433 kts 221°
2026-04-29 17:51 42.83634 76.53647 33231 ft 436 kts 220°
2026-04-29 17:52 42.81202 76.51192 33601 ft 439 kts 220°
2026-04-29 17:52 42.79581 76.49555 33850 ft 440 kts 220°
2026-04-29 17:52 42.76302 76.46244 34258 ft 444 kts 220°
2026-04-29 17:52 42.73827 76.43747 34535 ft 446 kts 220°
2026-04-29 17:53 42.71343 76.41245 34851 ft 448 kts 220°
2026-04-29 17:53 42.68834 76.38724 35194 ft 448 kts 220°
2026-04-29 17:53 42.66340 76.36218 35563 ft 448 kts 220°
2026-04-29 17:53 42.63847 76.33717 35928 ft 448 kts 220°
2026-04-29 17:54 42.61355 76.31217 36342 ft 448 kts 219°
2026-04-29 17:54 42.56270 76.26125 36402 ft 465 kts 219°
2026-04-29 17:55 42.50973 76.20833 36394 ft 482 kts 219°
2026-04-29 17:55 42.45536 76.15361 36426 ft 496 kts 221°
2026-04-29 17:56 42.40758 76.08627 36419 ft 504 kts 236°
2026-04-29 17:56 42.36862 76.00723 36445 ft 512 kts 238°
2026-04-29 17:57 42.32833 75.92770 36431 ft 515 kts 238°
2026-04-29 17:57 42.28787 75.84851 36429 ft 515 kts 238°
2026-04-29 17:58 42.24736 75.76937 36402 ft 515 kts 238°
2026-04-29 17:58 42.20668 75.69018 36420 ft 514 kts 238°
2026-04-29 17:59 42.16610 75.61136 36430 ft 514 kts 238°
2026-04-29 17:59 42.12543 75.53260 36427 ft 515 kts 238°
2026-04-29 18:00 42.08466 75.45387 36401 ft 515 kts 238°
2026-04-29 18:00 42.04369 75.37490 36413 ft 516 kts 238°
2026-04-29 18:01 42.00277 75.29626 36420 ft 516 kts 237°
2026-04-29 18:01 41.96174 75.21766 36405 ft 516 kts 237°
2026-04-29 18:02 41.92061 75.13901 36388 ft 515 kts 237°
2026-04-29 18:02 41.87959 75.06078 36398 ft 514 kts 237°
2026-04-29 18:03 41.83861 74.98282 36419 ft 514 kts 237°
2026-04-29 18:03 41.79757 74.90496 36389 ft 514 kts 237°
2026-04-29 18:04 41.75638 74.82701 36407 ft 513 kts 237°
2026-04-29 18:04 41.71532 74.74947 36416 ft 513 kts 237°
2026-04-29 18:05 41.67426 74.67210 36415 ft 513 kts 237°
2026-04-29 18:05 41.63302 74.59459 36409 ft 512 kts 237°
2026-04-29 18:06 41.59189 74.51748 36428 ft 512 kts 237°
2026-04-29 18:06 41.55074 74.44053 36430 ft 512 kts 237°
2026-04-29 18:07 41.50953 74.36367 36430 ft 512 kts 237°
2026-04-29 18:07 41.46811 74.28663 36426 ft 512 kts 236°
2026-04-29 18:08 41.42679 74.20991 36427 ft 512 kts 236°
2026-04-29 18:08 41.38538 74.13326 36423 ft 513 kts 236°
2026-04-29 18:09 41.34372 74.05633 36422 ft 513 kts 236°
2026-04-29 18:09 41.30180 73.98012 36420 ft 513 kts 233°
2026-04-29 18:10 41.25827 73.90552 36411 ft 513 kts 234°
2026-04-29 18:10 41.21487 73.83085 36404 ft 513 kts 234°
2026-04-29 18:11 41.17128 73.75608 36361 ft 513 kts 234°
2026-04-29 18:11 41.12776 73.68158 36326 ft 514 kts 234°
2026-04-29 18:12 41.08409 73.60696 36327 ft 514 kts 234°
2026-04-29 18:12 41.04029 73.53233 36286 ft 514 kts 234°
2026-04-29 18:13 40.99660 73.45804 36290 ft 513 kts 234°
2026-04-29 18:13 40.95295 73.38404 36306 ft 512 kts 234°
2026-04-29 18:14 40.90925 73.31009 36279 ft 513 kts 234°
2026-04-29 18:14 40.86527 73.23582 36224 ft 514 kts 234°
2026-04-29 18:15 40.82136 73.16194 36181 ft 515 kts 234°
2026-04-29 18:15 40.77731 73.08793 36124 ft 515 kts 234°
2026-04-29 18:16 40.73304 73.01375 36072 ft 515 kts 234°
2026-04-29 18:16 40.68891 72.94000 36064 ft 514 kts 234°
2026-04-29 18:17 40.64482 72.86643 36044 ft 513 kts 234°
2026-04-29 18:17 40.60082 72.79309 36029 ft 513 kts 234°
2026-04-29 18:18 40.56209 72.71487 36024 ft 511 kts 238°
2026-04-29 18:18 40.52319 72.63720 36052 ft 511 kts 238°
2026-04-29 18:19 40.48413 72.55978 36079 ft 511 kts 238°
2026-04-29 18:19 40.44486 72.48219 36123 ft 511 kts 238°
2026-04-29 18:20 40.40566 72.40498 36178 ft 510 kts 238°
2026-04-29 18:20 40.36646 72.32789 36188 ft 510 kts 237°
2026-04-29 18:21 40.32722 72.25094 36167 ft 510 kts 237°
2026-04-29 18:21 40.28780 72.17385 36205 ft 510 kts 237°
2026-04-29 18:22 40.24851 72.09719 36205 ft 510 kts 237°
2026-04-29 18:22 40.20501 72.02437 36246 ft 510 kts 233°
2026-04-29 18:23 40.16121 71.95139 36251 ft 511 kts 233°
2026-04-29 18:23 40.11761 71.87869 36271 ft 510 kts 233°
2026-04-29 18:24 40.07398 71.80611 36275 ft 511 kts 233°
2026-04-29 18:24 40.03030 71.73357 36273 ft 511 kts 233°
2026-04-29 18:25 39.98640 71.66088 36289 ft 510 kts 233°
2026-04-29 18:25 39.94275 71.58870 36338 ft 510 kts 233°
2026-04-29 18:26 39.89902 71.51661 36327 ft 510 kts 233°
2026-04-29 18:26 39.85512 71.44438 36348 ft 510 kts 233°
2026-04-29 18:27 39.81132 71.37249 36385 ft 510 kts 233°
2026-04-29 18:27 39.76745 71.30067 36449 ft 509 kts 233°
2026-04-29 18:28 39.72355 71.22892 36452 ft 510 kts 233°
2026-04-29 18:28 39.67934 71.15681 36405 ft 511 kts 233°
2026-04-29 18:29 39.63525 71.08509 36360 ft 511 kts 233°
2026-04-29 18:29 39.59116 71.01350 36334 ft 511 kts 233°
2026-04-29 18:30 39.54691 70.94184 36350 ft 509 kts 233°
2026-04-29 18:30 39.50283 70.87061 36382 ft 509 kts 233°
2026-04-29 18:31 39.45870 70.79945 36360 ft 509 kts 233°
2026-04-29 18:31 39.41440 70.72848 36327 ft 509 kts 232°
2026-04-29 18:32 39.36984 70.65732 36317 ft 510 kts 232°
2026-04-29 18:32 39.30319 70.55116 36315 ft 510 kts 232°
2026-04-29 18:33 39.25867 70.48051 36328 ft 509 kts 232°
2026-04-29 18:33 39.21504 70.40871 36319 ft 509 kts 233°
2026-04-29 18:34 39.17905 70.34902 36313 ft 509 kts 233°
2026-04-29 18:34 39.12846 70.26531 36276 ft 509 kts 233°
2026-04-29 18:35 39.08496 70.19357 36268 ft 509 kts 233°
2026-04-29 18:35 39.04160 70.12219 36273 ft 509 kts 233°
2026-04-29 18:36 38.99815 70.05081 36297 ft 510 kts 233°
2026-04-29 18:36 38.95451 69.97929 36299 ft 511 kts 233°
2026-04-29 18:37 38.91064 69.90753 36314 ft 511 kts 233°
2026-04-29 18:37 38.86695 69.83628 36309 ft 510 kts 233°
2026-04-29 18:38 38.82325 69.76511 36294 ft 510 kts 233°
2026-04-29 18:38 38.77994 69.69479 36289 ft 493 kts 233°
2026-04-29 18:39 38.73848 69.62757 36310 ft 473 kts 233°
2026-04-29 18:39 38.69846 69.56282 36322 ft 461 kts 233°
2026-04-29 18:40 38.65904 69.49917 36323 ft 456 kts 233°
2026-04-29 18:40 38.64050 69.46625 36143 ft 457 kts 239°
2026-04-29 18:40 38.62530 69.43040 35464 ft 467 kts 246°
2026-04-29 18:41 38.57853 69.32468 33596 ft 449 kts 251°
2026-04-29 18:41 38.57423 69.28611 32554 ft 446 kts 269°
2026-04-29 18:42 38.58148 69.24859 31851 ft 435 kts 292°
2026-04-29 18:42 38.59881 69.21750 31164 ft 427 kts 314°
2026-04-29 18:42 38.62171 69.19462 30562 ft 413 kts 316°
2026-04-29 18:42 38.63930 69.16697 29992 ft 395 kts 302°
2026-04-29 18:43 38.65621 69.14006 29387 ft 386 kts 307°
2026-04-29 18:43 38.67293 69.11399 28722 ft 378 kts 307°
2026-04-29 18:43 38.68650 69.08584 27539 ft 379 kts 287°
2026-04-29 18:43 38.69248 69.05324 26178 ft 385 kts 275°
2026-04-29 18:44 38.69003 69.01931 24607 ft 393 kts 252°
2026-04-29 18:44 38.68096 68.98655 22967 ft 402 kts 252°
2026-04-29 18:44 38.67275 68.95259 21283 ft 411 kts 251°
2026-04-29 18:44 38.66421 68.91798 19738 ft 413 kts 252°
2026-04-29 18:45 38.65575 68.88386 18797 ft 398 kts 252°
2026-04-29 18:45 38.64718 68.85135 18156 ft 380 kts 245°
2026-04-29 18:45 38.63189 68.82542 17557 ft 361 kts 219°
2026-04-29 18:45 38.61072 68.80934 16932 ft 347 kts 201°
2026-04-29 18:46 38.58850 68.79909 16366 ft 336 kts 199°
2026-04-29 18:46 38.56669 68.78990 15781 ft 327 kts 198°
2026-04-29 18:46 38.54543 68.78112 15202 ft 321 kts 198°
2026-04-29 18:46 38.52428 68.77244 14625 ft 319 kts 197°
2026-04-29 18:47 38.50328 68.76381 14040 ft 318 kts 197°
2026-04-29 18:47 38.48249 68.75500 13467 ft 316 kts 203°
2026-04-29 18:47 38.46526 68.73817 12903 ft 314 kts 233°
2026-04-29 18:47 38.45651 68.71337 12245 ft 309 kts 261°
2026-04-29 18:48 38.45663 68.68653 11623 ft 303 kts 274°
2026-04-29 18:48 38.45683 68.66002 10995 ft 300 kts 271°
2026-04-29 18:48 38.45697 68.63437 10821 ft 279 kts 271°
2026-04-29 18:48 38.45697 68.61059 10697 ft 261 kts 271°
2026-04-29 18:49 38.45701 68.58765 10644 ft 258 kts 271°
2026-04-29 18:49 38.45703 68.56473 10581 ft 258 kts 271°
2026-04-29 18:49 38.45705 68.54211 10480 ft 253 kts 271°
2026-04-29 18:49 38.45719 68.52017 10410 ft 245 kts 277°
2026-04-29 18:50 38.46329 68.50049 10079 ft 246 kts 314°
2026-04-29 18:50 38.47763 68.48939 9721 ft 247 kts 349°
2026-04-29 18:50 38.49477 68.48895 9240 ft 251 kts
2026-04-29 18:50 38.51233 68.48918 8620 ft 256 kts
2026-04-29 18:51 38.52961 68.49356 8073 ft 256 kts 30°
2026-04-29 18:51 38.54150 68.50970 7585 ft 255 kts 65°
2026-04-29 18:51 38.54473 68.53144 7090 ft 249 kts 91°
2026-04-29 18:51 38.54410 68.55231 6535 ft 228 kts 90°
2026-04-29 18:52 38.54398 68.57156 6170 ft 211 kts 90°
2026-04-29 18:52 38.54342 68.58982 5645 ft 208 kts 93°
2026-04-29 18:52 38.54296 68.60740 5343 ft 188 kts 91°
2026-04-29 18:52 38.54277 68.62336 5180 ft 171 kts 85°
2026-04-29 18:53 38.54362 68.63765 5156 ft 157 kts 86°
2026-04-29 18:53 38.54349 68.65137 4997 ft 152 kts 91°
2026-04-29 18:53 38.54340 68.66435 4797 ft 142 kts 90°
2026-04-29 18:53 38.54340 68.67698 4582 ft 144 kts 87°
2026-04-29 18:54 38.54341 68.68969 4432 ft 145 kts 89°
2026-04-29 18:54 38.54364 68.70246 4283 ft 147 kts 86°
2026-04-29 18:54 38.54377 68.71583 4057 ft 152 kts 90°
2026-04-29 18:54 38.54326 68.72923 3842 ft 151 kts 89°
2026-04-29 18:55 38.54340 68.74240 3614 ft 150 kts 87°
2026-04-29 18:55 38.54358 68.75540 3472 ft 142 kts 89°
2026-04-29 18:55 38.54358 68.76814 3206 ft 145 kts 88°
2026-04-29 18:55 38.54383 68.78083 2990 ft 144 kts 89°
2026-04-29 18:56 38.54375 68.79317 2829 ft 136 kts 88°
2026-04-29 18:56 38.54377 68.80498 2663 ft 130 kts 88°
2026-04-29 18:56 38.54383 68.81571 2607 ft 102 kts 89°
2026-04-29 18:56 38.54374 68.82017 2608 ft 27 kts 92°
2026-04-29 18:57 38.54370 68.82247 2608 ft 25 kts 94°
2026-04-29 18:57 38.54370 68.82463 2609 ft 24 kts 88°
2026-04-29 18:57 38.54374 68.82669 2609 ft 23 kts 90°
2026-04-29 18:57 38.54373 68.82869 2609 ft 22 kts 90°
2026-04-29 18:58 38.54369 68.83064 2609 ft 22 kts 93°
2026-04-29 18:58 38.54363 68.83236 2609 ft 7 kts 80°
2026-04-29 18:58 38.54369 68.83266 2609 ft 4 kts 43°
2026-04-29 18:58 38.54435 68.83288 2610 ft 18 kts
2026-04-29 18:59 38.54589 68.83293 2611 ft 17 kts 359°
2026-04-29 18:59 38.54683 68.83241 2612 ft 11 kts 264°
2026-04-29 18:59 38.54685 68.83074 2612 ft 27 kts 269°
2026-04-29 18:59 38.54688 68.82782 2611 ft 27 kts 271°
2026-04-29 19:00 38.54695 68.82643 2611 ft 13 kts 306°
2026-04-29 19:00 38.54738 68.82629 2611 ft 0 kts